Résultats du Marathon de Toulouse Métropole

Liste de résultats 2018

Place Dossard Nom Catégorie Temps réel Photos Diplôme Détails
1801 6540 SALINGUE Pascal SH 01:55:35
1802 8696 MICHELIN Sonia VF1 01:55:36
1803 9151 ZAINA Aurélie SF 01:55:36
1804 7080 LEFEUVRE Vincent SH 01:55:37
1805 8417 PASQUIER Matthieu SH 01:55:37
1806 8890 GEORGES Pauline SF 01:55:38
1807 9891 ALARD Olivier VH2 01:55:38
1808 7493 KIRZIN Sylvain VH1 01:55:41
1809 9139 WOJCIK Jeanne EF 01:55:41
1810 9453 GUEIT Isabelle VF2 01:55:42
1811 6796 STRAND Viktor VH2 01:55:42
1812 7780 SAINT AUBIN Jerome VH1 01:55:42
1813 8944 CANNE Emmanuelle EF 01:55:42
1814 8173 SIREYJOL Benoit VH1 01:55:45
1815 6582 JUNQUA Rene VH3 01:55:46
1816 7438 PLUMECOCQ Jean-loup VH2 01:55:47
1817 9356 BALMETTE Nathalie SF 01:55:49
1818 7306 BANEWITZ Stephane VH1 01:55:49
1819 7972 GERS Cedric SH 01:55:50
1820 6203 MARIE Jean yves VH3 01:55:50
1821 9124 ESTAGERIE Laetitia SF 01:55:52
1822 8526 ANTOLINOS Christelle SF 01:55:52
1823 6944 FAUQUET Julien VH1 01:55:53
1824 7020 CUCCHI Herve VH3 01:55:54
1825 7803 LOPEZ Didier VH1 01:55:55
1826 8398 BOTHOREL Maxence SH 01:56:00
1827 6802 FONTAN Julien SH 01:56:00
1828 7325 MARRAGOU Claude VH2 01:56:00
1829 7510 PELEGRY Julien SH 01:56:03
1830 9833 CLAUDE Loïc SH 01:56:03
1831 8548 LAMBEAUX Constance SF 01:56:03
1832 6663 PORTE Pierre SH 01:56:03
1833 8223 LASCAUD Romain SH 01:56:04
1834 9306 PANDELE Rébecca SF 01:56:04
1835 9569 PAULUS Linda VF1 01:56:05
1836 6886 CLAUDE Alexis SH 01:56:06
1837 6186 BADOIX VINCENT Maryse VH2 01:56:06
1838 7613 GUILLAUME Dominique VH2 01:56:06
1839 8381 LACAULE Simon SH 01:56:07
1840 9016 BLASCO Hélène SF 01:56:07
1841 9193 MOREAU Corinne VF2 01:56:09
1842 6683 FRANCESCHETTI Samuel VH1 01:56:09
1843 8604 LE NORMAND Sarah SF 01:56:11
1844 6250 SAUVAIRE Didier VH3 01:56:11
1845 9615 BEAUDONNET Angelique SF 01:56:11
1846 6741 CALDERONE Basilio VH1 01:56:13
1847 8629 BERMAKI Zineb SF 01:56:13
1848 7874 BLANC Corentin JH 01:56:13
1849 8520 JOANEZ Cécilia VF2 01:56:13
1850 8914 DARDIGNAC Catherine VF1 01:56:15
1851 7017 VELLAS Matthieu SH 01:56:17
1852 9677 CARDON Morgane SF 01:56:19
1853 6690 GIRARD Olivier SH 01:56:19
1854 7689 DELECROIX Cyprien SH 01:56:20
1855 7516 VILA Jean michel VH1 01:56:21
1856 6206 EXCOFFIER Xavier VH2 01:56:21
1857 7029 JOURAVLEFF Gregory SH 01:56:22
1858 9379 GENIN Julie SF 01:56:22
1859 6997 MOUREZ Olivier SH 01:56:22
1860 8618 REDON Patricia VF1 01:56:23
1861 9389 ROUX Karine VF2 01:56:25
1862 8515 DONADILLE Elisabeth VF1 01:56:26
1863 6343 NICOLAY Stéphane VH1 01:56:26
1864 6127 CLEYET-MERLE Denis VH2 01:56:28
1865 7434 NAUDINAT Vincent VH1 01:56:29
1866 9247 DABIN Sophie SF 01:56:30
1867 7400 MAFRA Carlos VH1 01:56:30
1868 8699 TANGUY Christelle SF 01:56:31
1869 9285 BARET Claire SF 01:56:31
1870 8141 CHOUTEAU Simon EH 01:56:32
1871 9145 PRAT Célia EF 01:56:32
1872 6027 NIANG Ousseynou SH 01:56:32
1873 9539 DUPLAN Clotilde EF 01:56:32
1874 7863 FIDANZA Raphaël VH1 01:56:33
1875 7273 CAUSSIGNAC Loris SH 01:56:33
1876 6383 LAFFORGUE Jeremy SH 01:56:34
1877 8630 MURATET Aude SF 01:56:35
1878 8306 VERMOT-DESROCHES Frederic VH1 01:56:36
1879 8329 CHATELAIN Yannick VH1 01:56:37
1880 8333 LEBREAUD David VH1 01:56:37
1881 8763 DELCOL Coralie SF 01:56:37
1882 9246 RUAMPS Rachel VF1 01:56:38
1883 6042 NAUDE Nicolas VH1 01:56:39
1884 6175 CARITTE Sylvestre VH1 01:56:39
1885 7788 CUNY Nicolas VH1 01:56:39
1886 6561 MAUGEAIS Xavier VH2 01:56:40
1887 7021 VEYRIE Stephane VH2 01:56:40
1888 7673 DAVID Louis SH 01:56:41
1889 6542 DENJEAN Patrick VH3 01:56:41
1890 8516 DI CLEMENTE Florence VF1 01:56:42
1891 7775 BERDOULAT Henri VH2 01:56:45
1892 8853 VIGARIOS Emmanuelle VF1 01:56:49
1893 8521 MILAN Mathilde SF 01:56:49
1894 7407 LE BAIL Samuel SH 01:56:50
1895 8647 TANNAY Claire SF 01:56:50
1896 9695 CHARPIN Sandrine VF2 01:56:52
1897 9207 FERRAND Géraldine SF 01:56:52
1898 7508 HABI Johann SH 01:56:53
1899 7363 TRAN Tuan-antoine VH2 01:56:53
1900 9486 BERRAUTE Delphine SF 01:56:54

Résultats

Organisé par

Nous contacter

Newsletter

Suivez-nous sur

 Facebook  Twitter  Youtube  RSS

Météo